EZY51U EGNS-EGGD

Flight info

Callsign EZY51U
Flight time 0h 54m
Altitude 23000
Route TIMIS Q39 NOMSU Q4 WAL N862 WEVBE
Aircraft A320/M-SDE2E3FGHIJ1RWXYZ/LB1

Departure

Time 2026-04-22 08:06
Airport Isle of Man Airport (EGNS)

Arrival

Time 2026-04-22 09:00
Airport Bristol Airport (EGGD)
Time Latitude Longitude Altitude Speed Heading
2026-04-22 07:43 54.08662 -4.63304 45 ft 0 kts 225°
2026-04-22 07:57 54.08666 -4.63297 44 ft 2 kts 225°
2026-04-22 07:58 54.08678 -4.63277 41 ft 2 kts 209°
2026-04-22 07:58 54.08694 -4.63268 42 ft 2 kts 172°
2026-04-22 07:58 54.08710 -4.63277 44 ft 0 kts 136°
2026-04-22 08:02 54.08698 -4.63257 42 ft 5 kts 135°
2026-04-22 08:02 54.08636 -4.63146 46 ft 16 kts 132°
2026-04-22 08:02 54.08579 -4.63051 46 ft 12 kts 150°
2026-04-22 08:03 54.08492 -4.63010 44 ft 14 kts 169°
2026-04-22 08:03 54.08415 -4.63012 42 ft 9 kts 243°
2026-04-22 08:03 54.08396 -4.63134 41 ft 11 kts 257°
2026-04-22 08:03 54.08379 -4.63262 41 ft 12 kts 257°
2026-04-22 08:04 54.08356 -4.63442 40 ft 19 kts 257°
2026-04-22 08:04 54.08307 -4.63681 39 ft 23 kts 245°
2026-04-22 08:04 54.08225 -4.63888 39 ft 17 kts 180°
2026-04-22 08:04 54.08146 -4.63909 37 ft 5 kts 188°
2026-04-22 08:05 54.08132 -4.63897 37 ft 2 kts 87°
2026-04-22 08:05 54.08139 -4.63862 37 ft 1 kts 73°
2026-04-22 08:05 54.08150 -4.63796 36 ft 11 kts 78°
2026-04-22 08:05 54.08193 -4.63458 37 ft 66 kts 78°
2026-04-22 08:06 54.08340 -4.62279 55 ft 132 kts 78°
2026-04-22 08:06 54.08529 -4.60718 819 ft 134 kts 80°
2026-04-22 08:06 54.08695 -4.59186 1754 ft 128 kts 85°
2026-04-22 08:06 54.08544 -4.57741 2462 ft 126 kts 120°
2026-04-22 08:07 54.07876 -4.56750 3120 ft 134 kts 152°
2026-04-22 08:07 54.06889 -4.56608 3659 ft 155 kts 180°
2026-04-22 08:07 54.05782 -4.56911 4108 ft 169 kts 181°
2026-04-22 08:07 54.04566 -4.57245 4529 ft 185 kts 182°
2026-04-22 08:08 54.03247 -4.57606 4928 ft 201 kts 182°
2026-04-22 08:08 54.01806 -4.58000 5317 ft 220 kts 183°
2026-04-22 08:08 54.00230 -4.58432 5854 ft 239 kts 183°
2026-04-22 08:08 53.98529 -4.58896 6444 ft 256 kts 184°
2026-04-22 08:09 53.96737 -4.59001 7214 ft 258 kts 167°
2026-04-22 08:09 53.95041 -4.58102 8109 ft 255 kts 149°
2026-04-22 08:09 53.93636 -4.56312 9030 ft 255 kts 132°
2026-04-22 08:09 53.92570 -4.53874 9927 ft 259 kts 125°
2026-04-22 08:10 53.91543 -4.51328 10762 ft 263 kts 125°
2026-04-22 08:10 53.90502 -4.48754 11543 ft 268 kts 125°
2026-04-22 08:10 53.89413 -4.46071 12031 ft 285 kts 125°
2026-04-22 08:10 53.88257 -4.43232 12472 ft 301 kts 125°
2026-04-22 08:11 53.87047 -4.40257 13091 ft 311 kts 125°
2026-04-22 08:11 53.85810 -4.37214 13862 ft 315 kts 125°
2026-04-22 08:11 53.84560 -4.34146 14581 ft 319 kts 125°
2026-04-22 08:11 53.83285 -4.31021 15227 ft 324 kts 126°
2026-04-22 08:12 53.81997 -4.27870 15855 ft 329 kts 125°
2026-04-22 08:12 53.80685 -4.24663 16430 ft 335 kts 126°
2026-04-22 08:12 53.79342 -4.21389 16983 ft 342 kts 125°
2026-04-22 08:12 53.77969 -4.18049 17550 ft 349 kts 125°
2026-04-22 08:13 53.76572 -4.14651 18122 ft 355 kts 125°
2026-04-22 08:13 53.75167 -4.11235 18680 ft 362 kts 125°
2026-04-22 08:13 53.73720 -4.07727 19167 ft 368 kts 126°
2026-04-22 08:13 53.72240 -4.04152 19643 ft 374 kts 126°
2026-04-22 08:14 53.70739 -4.00531 20113 ft 380 kts 126°
2026-04-22 08:14 53.69215 -3.96846 20598 ft 386 kts 126°
2026-04-22 08:14 53.67671 -3.93115 21076 ft 391 kts 126°
2026-04-22 08:14 53.66104 -3.89338 21572 ft 396 kts 126°
2026-04-22 08:15 53.64514 -3.85517 22025 ft 401 kts 126°
2026-04-22 08:15 53.62896 -3.81641 22484 ft 407 kts 126°
2026-04-22 08:15 53.61257 -3.77722 22957 ft 411 kts 126°
2026-04-22 08:15 53.59601 -3.73766 23342 ft 415 kts 126°
2026-04-22 08:16 53.57949 -3.69821 23418 ft 407 kts 126°
2026-04-22 08:16 53.56351 -3.66002 23424 ft 390 kts 126°
2026-04-22 08:16 53.54796 -3.62299 23427 ft 389 kts 126°
2026-04-22 08:16 53.53231 -3.58581 23426 ft 388 kts 126°
2026-04-22 08:17 53.51666 -3.54871 23428 ft 388 kts 126°
2026-04-22 08:17 53.50101 -3.51166 23431 ft 388 kts 126°
2026-04-22 08:17 53.48539 -3.47476 23428 ft 388 kts 126°
2026-04-22 08:17 53.47027 -3.43731 23428 ft 389 kts 120°
2026-04-22 08:18 53.45863 -3.39650 23431 ft 389 kts 113°
2026-04-22 08:18 53.44812 -3.35458 23431 ft 389 kts 113°
2026-04-22 08:18 53.43755 -3.31287 23433 ft 388 kts 113°
2026-04-22 08:18 53.42694 -3.27130 23431 ft 388 kts 113°
2026-04-22 08:19 53.41627 -3.22963 23431 ft 388 kts 113°
2026-04-22 08:19 53.40473 -3.18876 23430 ft 387 kts 121°
2026-04-22 08:19 53.38910 -3.15223 23433 ft 386 kts 133°
2026-04-22 08:19 53.36953 -3.12166 23431 ft 384 kts 145°
2026-04-22 08:20 53.34692 -3.09819 23436 ft 382 kts 156°
2026-04-22 08:20 53.32304 -3.07908 23434 ft 381 kts 156°
2026-04-22 08:20 53.29910 -3.05997 23433 ft 381 kts 156°
2026-04-22 08:20 53.27515 -3.04087 23408 ft 381 kts 156°
2026-04-22 08:21 53.25122 -3.02177 23412 ft 381 kts 156°
2026-04-22 08:21 53.22730 -3.00265 23407 ft 381 kts 156°
2026-04-22 08:21 53.20338 -2.98355 23409 ft 381 kts 156°
2026-04-22 08:21 53.17946 -2.96446 23408 ft 381 kts 156°
2026-04-22 08:22 53.15560 -2.94547 23408 ft 381 kts 156°
2026-04-22 08:22 53.13166 -2.92649 23409 ft 381 kts 156°
2026-04-22 08:22 53.10776 -2.90762 23409 ft 381 kts 158°
2026-04-22 08:22 53.08299 -2.89288 23410 ft 378 kts 168°
2026-04-22 08:23 53.05715 -2.88607 23409 ft 375 kts 179°
2026-04-22 08:23 53.03111 -2.88672 23412 ft 373 kts 186°
2026-04-22 08:23 53.00526 -2.88898 23413 ft 373 kts 186°
2026-04-22 08:23 52.97934 -2.89118 23412 ft 373 kts 186°
2026-04-22 08:24 52.95332 -2.89336 23410 ft 374 kts 186°
2026-04-22 08:24 52.92733 -2.89553 23413 ft 374 kts 185°
2026-04-22 08:24 52.90171 -2.89766 23410 ft 374 kts 186°
2026-04-22 08:24 52.87589 -2.90253 23408 ft 372 kts 191°
2026-04-22 08:25 52.85031 -2.90859 23410 ft 372 kts 191°
2026-04-22 08:25 52.82472 -2.91463 23411 ft 372 kts 191°
2026-04-22 08:25 52.79902 -2.92069 23410 ft 372 kts 191°
2026-04-22 08:25 52.77347 -2.92673 23408 ft 372 kts 191°
2026-04-22 08:26 52.74785 -2.93278 23407 ft 372 kts 191°
2026-04-22 08:26 52.72215 -2.93885 23409 ft 372 kts 191°
2026-04-22 08:26 52.69631 -2.94260 23405 ft 374 kts 185°
2026-04-22 08:26 52.67032 -2.94474 23405 ft 374 kts 186°
2026-04-22 08:27 52.64431 -2.94689 23407 ft 374 kts 185°
2026-04-22 08:27 52.61839 -2.94903 23401 ft 374 kts 186°
2026-04-22 08:27 52.59251 -2.95115 23165 ft 367 kts 186°
2026-04-22 08:27 52.56726 -2.95320 22897 ft 359 kts 186°
2026-04-22 08:28 52.54245 -2.95522 22618 ft 356 kts 186°
2026-04-22 08:28 52.51780 -2.95725 22356 ft 355 kts 185°
2026-04-22 08:28 52.49310 -2.95927 22091 ft 354 kts 185°
2026-04-22 08:28 52.46861 -2.96124 21826 ft 352 kts 186°
2026-04-22 08:29 52.44421 -2.96326 21564 ft 351 kts 186°
2026-04-22 08:29 52.41983 -2.96531 21305 ft 350 kts 185°
2026-04-22 08:29 52.39562 -2.96732 21043 ft 346 kts 186°
2026-04-22 08:29 52.37163 -2.96929 20647 ft 344 kts 185°
2026-04-22 08:30 52.34767 -2.97123 20219 ft 343 kts 184°
2026-04-22 08:30 52.32394 -2.97313 19804 ft 343 kts 184°
2026-04-22 08:30 52.30005 -2.97507 19378 ft 342 kts 184°
2026-04-22 08:30 52.27628 -2.97701 18960 ft 342 kts 184°
2026-04-22 08:31 52.25256 -2.97893 18524 ft 342 kts 183°
2026-04-22 08:31 52.22874 -2.98084 18082 ft 341 kts 183°
2026-04-22 08:31 52.18172 -2.98461 17261 ft 337 kts 182°
2026-04-22 08:32 52.15836 -2.98656 16878 ft 334 kts 182°
2026-04-22 08:32 52.13524 -2.98850 16494 ft 332 kts 182°
2026-04-22 08:32 52.11229 -2.99038 16222 ft 327 kts 181°
2026-04-22 08:32 52.08998 -2.99221 16141 ft 316 kts 181°
2026-04-22 08:33 52.06808 -2.99402 16031 ft 314 kts 181°
2026-04-22 08:33 52.04628 -2.99581 15913 ft 313 kts 181°
2026-04-22 08:33 52.02458 -2.99755 15799 ft 312 kts 181°
2026-04-22 08:33 52.00289 -2.99927 15682 ft 311 kts 181°
2026-04-22 08:34 51.98134 -3.00097 15569 ft 310 kts 180°
2026-04-22 08:34 51.95991 -3.00176 15456 ft 307 kts 174°
2026-04-22 08:34 51.93891 -2.99582 15253 ft 305 kts 161°
2026-04-22 08:34 51.91909 -2.98417 14949 ft 303 kts 157°
2026-04-22 08:35 51.89938 -2.97227 14662 ft 301 kts 158°
2026-04-22 08:35 51.87983 -2.96061 14384 ft 298 kts 158°
2026-04-22 08:35 51.86053 -2.94912 14087 ft 296 kts 157°
2026-04-22 08:35 51.84128 -2.93760 13800 ft 292 kts 158°
2026-04-22 08:36 51.82233 -2.92625 13522 ft 289 kts 157°
2026-04-22 08:36 51.80354 -2.91505 13244 ft 287 kts 158°
2026-04-22 08:36 51.78484 -2.90395 12970 ft 286 kts 157°
2026-04-22 08:36 51.76624 -2.89288 12697 ft 284 kts 157°
2026-04-22 08:37 51.74781 -2.88190 12405 ft 282 kts 157°
2026-04-22 08:37 51.72946 -2.87093 12138 ft 280 kts 157°
2026-04-22 08:37 51.71145 -2.86028 11876 ft 279 kts 159°
2026-04-22 08:37 51.69279 -2.85205 11593 ft 277 kts 162°
2026-04-22 08:38 51.67403 -2.84393 11302 ft 275 kts 161°
2026-04-22 08:38 51.65563 -2.83593 11014 ft 273 kts 161°
2026-04-22 08:38 51.63762 -2.82811 10725 ft 271 kts 161°
2026-04-22 08:38 51.61947 -2.82026 10434 ft 269 kts 161°
2026-04-22 08:39 51.60141 -2.81246 10133 ft 267 kts 161°
2026-04-22 08:39 51.58350 -2.80468 9840 ft 266 kts 161°
2026-04-22 08:39 51.56570 -2.79693 9552 ft 265 kts 160°
2026-04-22 08:39 51.54791 -2.78924 9150 ft 264 kts 160°
2026-04-22 08:40 51.53025 -2.78161 8882 ft 262 kts 160°
2026-04-22 08:40 51.51267 -2.77404 8611 ft 261 kts 160°
2026-04-22 08:40 51.49515 -2.76652 8335 ft 260 kts 160°
2026-04-22 08:40 51.47768 -2.75905 8064 ft 259 kts 160°
2026-04-22 08:41 51.46038 -2.75162 7796 ft 257 kts 160°
2026-04-22 08:41 51.44309 -2.74416 7538 ft 256 kts 160°
2026-04-22 08:41 51.42589 -2.73919 7410 ft 251 kts 176°
2026-04-22 08:41 51.40926 -2.74715 7277 ft 255 kts 207°
2026-04-22 08:42 51.39723 -2.76809 6970 ft 266 kts 239°
2026-04-22 08:42 51.39435 -2.79771 6654 ft 275 kts 277°
2026-04-22 08:42 51.39867 -2.82747 6278 ft 276 kts 283°
2026-04-22 08:42 51.40346 -2.85736 5913 ft 276 kts 284°
2026-04-22 08:43 51.40825 -2.88698 5561 ft 273 kts 284°
2026-04-22 08:43 51.41303 -2.91674 4833 ft 279 kts 284°
2026-04-22 08:43 51.41588 -2.94737 4203 ft 275 kts 259°
2026-04-22 08:43 51.40893 -2.97393 3875 ft 248 kts 219°
2026-04-22 08:44 51.39536 -2.98614 3639 ft 209 kts 176°
2026-04-22 08:44 51.38297 -2.98084 3489 ft 171 kts 132°
2026-04-22 08:44 51.37759 -2.97050 3380 ft 153 kts 117°
2026-04-22 08:44 51.37367 -2.95583 3260 ft 137 kts 102°
2026-04-22 08:45 51.37299 -2.94090 3155 ft 136 kts 86°
2026-04-22 08:45 51.37394 -2.92608 2997 ft 133 kts 88°
2026-04-22 08:45 51.37450 -2.91632 2914 ft 133 kts 88°
2026-04-22 08:45 51.37524 -2.90163 2753 ft 132 kts 88°
2026-04-22 08:46 51.37590 -2.88693 2584 ft 132 kts 90°
2026-04-22 08:46 51.37654 -2.87227 2399 ft 132 kts 89°
2026-04-22 08:46 51.37715 -2.85760 2225 ft 133 kts 88°
2026-04-22 08:46 51.37774 -2.84293 2045 ft 133 kts 88°
2026-04-22 08:47 51.37833 -2.82829 1857 ft 132 kts 88°
2026-04-22 08:47 51.37893 -2.81369 1673 ft 131 kts 89°
2026-04-22 08:47 51.37950 -2.79918 1491 ft 131 kts 87°
2026-04-22 08:47 51.38008 -2.78470 1306 ft 132 kts 86°
2026-04-22 08:48 51.38061 -2.77021 1125 ft 130 kts 86°
2026-04-22 08:48 51.38110 -2.75564 948 ft 132 kts 84°
2026-04-22 08:48 51.38174 -2.74096 756 ft 133 kts 85°
2026-04-22 08:48 51.38234 -2.72644 739 ft 130 kts 84°
2026-04-22 08:49 51.38307 -2.71110 1343 ft 143 kts 86°
2026-04-22 08:49 51.38351 -2.69516 2256 ft 140 kts 89°
2026-04-22 08:49 51.38427 -2.67939 2810 ft 148 kts 89°
2026-04-22 08:49 51.38523 -2.66180 3006 ft 170 kts 87°
2026-04-22 08:50 51.38621 -2.64271 3001 ft 178 kts 87°
2026-04-22 08:50 51.38907 -2.62302 3007 ft 187 kts 64°
2026-04-22 08:50 51.39926 -2.60930 3009 ft 204 kts 27°
2026-04-22 08:50 51.41389 -2.60724 3001 ft 221 kts
2026-04-22 08:51 51.42922 -2.61083 3008 ft 224 kts 358°
2026-04-22 08:51 51.44455 -2.61528 3007 ft 224 kts 357°
2026-04-22 08:51 51.45918 -2.62505 3009 ft 238 kts 325°
2026-04-22 08:51 51.46904 -2.64657 3007 ft 246 kts 290°
2026-04-22 08:52 51.47206 -2.67245 3004 ft 225 kts 274°
2026-04-22 08:52 51.47316 -2.69756 3011 ft 226 kts 272°
2026-04-22 08:52 51.47395 -2.72260 3014 ft 226 kts 271°
2026-04-22 08:52 51.47461 -2.74786 2954 ft 227 kts 271°
2026-04-22 08:53 51.47523 -2.77284 2859 ft 221 kts 272°
2026-04-22 08:53 51.47580 -2.79738 2691 ft 218 kts 271°
2026-04-22 08:53 51.47631 -2.82108 2561 ft 206 kts 271°
2026-04-22 08:53 51.47680 -2.84351 2503 ft 194 kts 269°
2026-04-22 08:54 51.47637 -2.86423 2517 ft 181 kts 263°
2026-04-22 08:54 51.47522 -2.88440 2528 ft 181 kts 261°
2026-04-22 08:54 51.47275 -2.90400 2530 ft 176 kts 236°
2026-04-22 08:54 51.46478 -2.91661 2523 ft 155 kts 191°
2026-04-22 08:55 51.45482 -2.92180 2502 ft 148 kts 179°
2026-04-22 08:55 51.44484 -2.92535 2510 ft 146 kts 178°
2026-04-22 08:55 51.43502 -2.92857 2509 ft 146 kts 177°
2026-04-22 08:55 51.42492 -2.93182 2510 ft 147 kts 177°
2026-04-22 08:56 51.41493 -2.93502 2513 ft 146 kts 177°
2026-04-22 08:56 51.40501 -2.93819 2521 ft 145 kts 177°
2026-04-22 08:56 51.39540 -2.93969 2523 ft 135 kts 160°
2026-04-22 08:56 51.38687 -2.93559 2527 ft 125 kts 140°
2026-04-22 08:57 51.38014 -2.92660 2506 ft 129 kts 121°
2026-04-22 08:57 51.37608 -2.91377 2510 ft 131 kts 103°
2026-04-22 08:57 51.37547 -2.89920 2505 ft 132 kts 88°
2026-04-22 08:57 51.37607 -2.88463 2448 ft 131 kts 88°
2026-04-22 08:58 51.37666 -2.87003 2331 ft 132 kts 89°
2026-04-22 08:58 51.37725 -2.85544 2190 ft 132 kts 89°
2026-04-22 08:58 51.37784 -2.84077 2014 ft 131 kts 88°
2026-04-22 08:58 51.37842 -2.82620 1833 ft 132 kts 88°
2026-04-22 08:59 51.37901 -2.81159 1640 ft 131 kts 86°
2026-04-22 08:59 51.37959 -2.79707 1460 ft 130 kts 86°
2026-04-22 08:59 51.38016 -2.78266 1281 ft 130 kts 85°
2026-04-22 08:59 51.38078 -2.76816 1085 ft 130 kts 85°
2026-04-22 09:00 51.38130 -2.75359 885 ft 130 kts 85°
2026-04-22 09:00 51.38180 -2.73907 745 ft 132 kts 85°
2026-04-22 09:00 51.38246 -2.72462 618 ft 127 kts 83°
2026-04-22 09:00 51.38293 -2.71531 622 ft 40 kts 89°
2026-04-22 09:01 51.38270 -2.71400 623 ft 7 kts 149°
2026-04-22 09:01 51.38240 -2.71373 618 ft 0 kts 149°